Regional Weather Roundup
Issued by NWS

Home | Current Version | Previous Version | Graphics & Text | Print | Product List | Glossary On
Versions: 1 2 3 4 5 6 7 8 9 10 11 12 13 14 15 16 17 18 19 20 21 22 23 24 25 26 27 28 29 30 31 32 33 34 35 36 37 38 39 40 41 42 43 44 45 46 47 48 49 50
000
ASUS43 KIND 200459
RWRIN

WEATHER ROUNDUP FOR INDIANA
NATIONAL WEATHER SERVICE INDIANAPOLIS IN
1200 AM EST FRI JAN 20 2017

NOTE: "FAIR" INDICATES FEW OR NO CLOUDS BELOW 12,000 FEET WITH NO
SIGNIFICANT WEATHER AND/OR OBSTRUCTIONS TO VISIBILITY.

* - STATION DOES NOT REPORT WEATHER SUCH AS PRECIPITATION OR FOG.

+ - STATION NOT QUALITY CONTROLLED BY THE NATIONAL WEATHER SERVICE.
    USE DATA WITH CAUTION...ESPECIALLY DEWPOINT AND RELATIVE
    HUMIDITY OBSERVATIONS.

INZ001>003-010>013-019-020-200600-
NORTHWEST INDIANA

CITY           SKY/WX    TMP DP  RH WIND       PRES   REMARKS
KNOX *+        CLOUDY    39  30  70 E8        29.73F
MONTICELLO +   LGT RAIN  41  39  95 E9        29.70F

$$

LMZ046-743>745-200600-
SOUTHERN LAKE MICHIGAN

STATION/POSITION TIME  TEMP    WIND        PRES    WAVE
                       AIR SEA DIR/SP/G            HT
                 (UTC) (F)     (DEG/KT/KT) (MB)    (FT)
BURNS HARBOR     0440   35      70/  5/  7 1008.5F
MICHIGAN CITY    0430   38      40/ 10/ 11   N/A

$$

INZ004-005-014>016-021>024-200600-
NORTH CENTRAL INDIANA

CITY           SKY/WX    TMP DP  RH WIND       PRES   REMARKS
GOSHEN         LGT RAIN  38  35  89 E10       29.76F FOG
PERU/GRISSOM   MIX PCPN  41  41 100 E13       29.69F FOG
SOUTH BEND     RAIN      37  36  96 E8        29.76F FOG

$$

INZ006>009-017-018-025>027-200600-
NORTHEAST INDIANA

CITY           SKY/WX    TMP DP  RH WIND       PRES   REMARKS
ANGOLA *+      CLOUDY    36  36 100 SE9       29.80F
FORT WAYNE     LGT RAIN  41  37  86 E12       29.77F FOG
KENDALLVILLE + LGT RAIN  37  37  99 E9        29.78F

$$

INZ028-029-035-036-043>045-051>053-200600-
WEST CENTRAL INDIANA

CITY           SKY/WX    TMP DP  RH WIND       PRES   REMARKS
CRAWFORDSVL +  LGT SNOW  42  42 100 SE10      29.67F
LAFAYETTE      LGT RAIN  42  42 100 E9        29.68F FOG
TERRE HAUTE    LGT RAIN  47  45  93 SE7       29.65F

$$

INZ030>032-037>040-046>048-054>057-064-065-200600-
CENTRAL INDIANA

CITY           SKY/WX    TMP DP  RH WIND       PRES   REMARKS
INDIANAPOLIS   LGT RAIN  44  43  96 E9        29.68F FOG
-EAGLE CREEK   RAIN      45  43  93 E6        29.68F FOG
KOKOMO +       RAIN      42  41  96 E13       29.71F FOG
MT COMFORT *+  CLOUDY    43  43 100 SE8       29.70F
SHELBYVILLE    RAIN      46  43  89 E9        29.69F FOG

$$

INZ033-034-041-042-049-050-058-059-200600-
EAST CENTRAL INDIANA

CITY           SKY/WX    TMP DP  RH WIND       PRES   REMARKS
MUNCIE         LGT RAIN  44  41  89 E12       29.72F FOG

$$

INZ060-061-067>069-081>083-085>088-200600-
SOUTHWEST INDIANA

CITY           SKY/WX    TMP DP  RH WIND       PRES   REMARKS
EVANSVILLE     LGT RAIN  54  53  97 CALM      29.66F VSB 3/4

$$

INZ062-063-066-070>080-084-089>092-200600-
SOUTH CENTRAL AND SOUTHEAST INDIANA

CITY           SKY/WX    TMP DP  RH WIND       PRES   REMARKS
BLOOMINGTON    LGT RAIN  46  44  93 SE7       29.66F
MADISON *+     CLOUDY    46  45  93 E7        29.71F
SEYMOUR +      LGT RAIN  48  48 100 E3        29.68F

$$




USA.gov is the U.S. government's official web portal to all federal, state and local government web resources and services.